Tracking 25995 objects as of 20-Aug-2022
HD Live streaming from Space Station
objects crossing your sky now

STARLINK-3095

Track STARLINK-3095 now!
10-day predictions
STARLINK-3095 is classified as:


NORAD ID: 49160
Int'l Code: 2021-082AG
Perigee: 576.9 km
Apogee: 581.4 km
Inclination: 70.0 °
Period: 96.1 minutes
Semi major axis: 6950 km
RCS: Unknown
Launch date: September 14, 2021
Source: United States (US)
Launch site: AIR FORCE WESTERN TEST RANGE (AFWTR)
aabbcc
Your satellite tracking list
Your tracking list is empty




NASA's NSSDC Master Catalog

Two Line Element Set (TLE):
1 49160U 21082AG  22231.46439224  .00001539  00000-0  13672-3 0  9997
2 49160  70.0011 327.7389 0003216 259.0746 101.0051 14.98336872 52584
Source of the keplerian elements: AFSPC